This demonstration page uses our WeatherBlox Daily Observations layout. Learn more.

Left ArrowRight Arrow

Hourly Observations for November 25, 2022

Temp ( °F °C ) Dew Point ( °F °C ) Humidity (%) Winds ( mph kmh ) Pressure ( in mb ) Visibility ( mi km ) Precip ( " mm )
12:56 am 00:56 Clear 32 0 29 -1.7 88 88 NNW 6 9 30.36 1028 10 16 0.00 0.00
1:56 am 01:56 Clear 31 -0.6 28 -2.2 89 89 NNW 10 17 30.37 1028 10 16 0.00 0.00
2:56 am 02:56 Clear 30 -1.1 28 -2.2 92 92 NNW 10 17 30.36 1028 10 16 0.00 0.00
3:56 am 03:56 Clear 30 -1.1 29 -1.7 96 96 NNW 13 20 30.36 1028 10 16 0.00 0.00
4:56 am 04:56 Clear 29 -1.7 28 -2.2 96 96 N 10 17 30.36 1028 10 16 0.00 0.00
5:56 am 05:56 Clear 30 -1.1 29 -1.7 96 96 N 10 17 30.38 1029 10 16 0.00 0.00
6:56 am 06:56 Clear 29 -1.7 28 -2.2 96 96 NNW 12 19 30.39 1029 10 16 0.00 0.00
7:56 am 07:56 Sunny 32 0 31 -0.6 96 96 NNW 8 13 30.40 1029 10 16 0.00 0.00
8:56 am 08:56 Sunny 36 2.2 32 0 85 85 N 10 17 30.41 1030 10 16 0.00 0.00
9:56 am 09:56 Sunny 41 5 33 0.6 73 73 N 10 17 30.41 1030 10 16 0.00 0.00
10:56 am 10:56 Sunny 46 7.8 34 1.1 63 63 NE 9 15 30.38 1029 10 16 0.00 0.00
11:56 am 11:56 Sunny 49 9.4 34 1.1 56 56 N 5 7 30.36 1028 10 16 0.00 0.00
12:56 pm 12:56 Sunny 52 11.1 34 1.1 50 50 NNE 8 13 30.32 1027 10 16 0.00 0.00
1:56 pm 13:56 Sunny 52 11.1 33 0.6 48 48 NNE 5 7 30.30 1026 10 16 0.00 0.00
2:56 pm 14:56 Sunny 53 11.7 32 0 44 44 Calm 30.28 1025 10 16 0.00 0.00
3:56 pm 15:56 Sunny 53 11.7 31 -0.6 43 43 Calm 30.27 1025 10 16 0.00 0.00
4:56 pm 16:56 Sunny 50 10 30 -1.1 46 46 Calm 30.26 1025 10 16 0.00 0.00
5:56 pm 17:56 Clear 47 8.3 30 -1.1 51 51 Calm 30.25 1024 10 16 0.00 0.00
6:56 pm 18:56 Clear 46 7.8 30 -1.1 53 53 Calm 30.25 1024 10 16 0.00 0.00
7:56 pm 19:56 Clear 44 6.7 30 -1.1 57 57 Calm 30.25 1024 10 16 0.00 0.00
8:56 pm 20:56 Clear 42 5.6 30 -1.1 62 62 E 5 7 30.23 1024 10 16 0.00 0.00
9:56 pm 21:56 Clear 39 3.9 30 -1.1 70 70 ESE 3 6 30.22 1024 10 16 0.00 0.00
10:56 pm 22:56 Clear 38 3.3 30 -1.1 73 73 SE 5 7 30.22 1023 10 16 0.00 0.00
11:56 pm 23:56 Clear 38 3.3 30 -1.1 73 73 SSE 5 7 30.19 1023 10 16 0.00 0.00

Powered by AerisWeather